Погода в Новопетровке

Украина / Запорожская область     48°03′54″N   34°58′59″E
темп.,
°C
ветер,
м/с
пор.,
м/с
влажн.,
%
обл.,
%
осадки,
мм/ч
давл.,
гПа
погр.,
м
12 апреля, пн
пн1200:00+10ссв51160100 0.0 1022460
03:00+9ссв5963100 0.0 1021446
06:00+9св4869100 0.0 1021447
09:00+10всв3580100 0.0 1021336
12:00+14ююв2365100 0.0 1020966
15:00+14ю2265100 0.0 1020578
18:00+14юв1167100 0.0 102016
21:00+12ююз3572100 0.0 1021130
13 апреля, вт
вт1300:00+11ю3583100 0.0 1021208
03:00+10ю3587100 0.0 1021301
06:00+10ююв2490100 0.1 1021239
09:00+10ююв3382100 0.1 1021350
12:00+13ю446637 0.0 1021911
15:00+15ю4554100 0.1 10201367
18:00+13юв3567100 0.0 1020180
21:00+12юв3573100 0.1 1020204
14 апреля, ср
ср1400:00+11ю3680100 0.0 1020315
03:00+9юв239052 0.0 101961
06:00+7юв2296100 0.0 101941
09:00+11ю3479100 0.0 1019498
12:00+15ююв4458100 0.0 10181153
15:00+16ююв455198 0.0 10171685
18:00+15юв4556100 0.0 1016387
21:00+12юв336868 0.0 101638
15 апреля, чт
чт1500:00+10ююз33796 0.0 101656
03:00+8ююв228459 0.0 101522
06:00+8ююв228797 0.0 101525
09:00+12юв3369100 0.0 1015475
12:00+15ююв454674 0.0 10141190
15:00+16ю6649100 0.0 10131703
18:00+12ю5768100 0.0 1013755
21:00+10юз4682100 0.0 1013425
16 апреля, пт
пт1600:00+8ююз359275 0.0 1013147
03:00+9юз2492100 0.6 1012288
06:00+8юз3587100 0.0 1013386
09:00+9ю3573100 0.1 1013829
12:00+11ю5570100 0.2 10131037
15:00+11ю4471100 0.6 1013928
18:00+10ююз3481100 0.3 1013329
21:00+8ю3590100 0.8 1014355